Weather History for Hatteras, NC

Change the Weather History Date:

Friday, February 14, 2014

  Actual Average Record
Temperature  
Mean Temperature 46 °F 47 °F  
Max Temperature 53 °F 53 °F 73 °F (1989)
Min Temperature 38 °F 40 °F 12 °F (1899)
Degree Days  
Heating Degree Days 19 18  
Month to date heating degree days 269 265  
Since 1 July heating degree days 1614 1678  
Cooling Degree Days 0 0  
Month to date cooling degree days 0 0  
Year to date cooling degree days 0 0  
Moisture  
Dew Point 39 °F    
Average Humidity 72    
Maximum Humidity 85    
Minimum Humidity 59    
Precipitation  
Precipitation 0.00 in 0.14 in 2.14 in (1983)
Month to date precipitation 3.73 2.02  
Year to date precipitation 9.07 7.26  
Snow  
Snow 0.00 in - - ()
Month to date snowfall 5.5  
Since 1 July snowfall 5.5  
Snow Depth 0.00 in    
Sea Level Pressure  
Sea Level Pressure 29.79 in    
Wind  
Wind Speed 14 mph (WSW)    
Max Wind Speed 21 mph    
Max Gust Speed 34 mph    
Visibility 10 miles    
Events      
T = Trace of Precipitation, MM = Missing Value Source: NWS Daily Summary

Daily Weather History Graph

Daily Weather History Graph

Search for Another Location

Airport:

Trip Planner

Search our weather history database for the weather conditions in past years. The results will help you decide how hot, cold, wet, or windy it might be!

Date:

Astronomy

Feb. 14, 2014 Rise Set
Actual Time 6:49 AM EST 5:43 PM EST
Civil Twilight 6:23 AM EST 6:09 PM EST
Nautical Twilight 5:54 AM EST 6:39 PM EST
Astronomical Twilight 5:24 AM EST 7:09 PM EST
Moon 5:43 PM EST (2/14) 6:16 AM EST (2/14)
Length of Visible Light 11h 46m
Length of Day
10h 54m
Full, 100% of the Moon is Illuminated
Feb 14
Full
Feb 14
Full
Feb 22
Last Quarter
Mar 1
New
Mar 8
First Quarter

Hourly Weather History & Observations

Time (EST) Temp. Windchill Dew Point Humidity Pressure Visibility Wind Dir Wind Speed Gust Speed Precip Events Conditions
12:51 AM 39.9 °F 30.8 °F 36.0 °F 86% 29.62 in 10.0 mi West 18.4 mph 29.9 mph N/A   Partly Cloudy
1:51 AM 39.9 °F 31.1 °F 36.0 °F 86% 29.65 in 10.0 mi West 17.3 mph 32.2 mph N/A   Clear
2:51 AM 39.0 °F 30.3 °F 35.1 °F 86% 29.68 in 10.0 mi West 16.1 mph 25.3 mph N/A   Clear
3:51 AM 39.0 °F 30.6 °F 34.0 °F 82% 29.70 in 10.0 mi West 15.0 mph 25.3 mph N/A   Clear
4:51 AM 39.0 °F 31.0 °F 33.1 °F 79% 29.73 in 10.0 mi West 13.8 mph 25.3 mph N/A   Clear
5:51 AM 37.9 °F 30.0 °F 33.1 °F 83% 29.77 in 10.0 mi West 12.7 mph 23.0 mph N/A   Clear
6:51 AM 39.0 °F 31.4 °F 33.1 °F 79% 29.81 in 10.0 mi West 12.7 mph 26.5 mph N/A   Clear
7:51 AM 39.9 °F 32.5 °F 33.1 °F 77% 29.83 in 10.0 mi West 12.7 mph 21.9 mph N/A   Clear
8:51 AM 44.1 °F 38.6 °F 34.0 °F 68% 29.84 in 9.0 mi WSW 10.4 mph 19.6 mph N/A   Clear
9:51 AM 46.9 °F - 35.1 °F 63% 29.84 in 10.0 mi WSW 13.8 mph 19.6 mph N/A   Clear
10:51 AM 48.9 °F - 37.0 °F 64% 29.84 in 10.0 mi WSW 12.7 mph 19.6 mph N/A   Clear
11:51 AM 51.1 °F - 39.0 °F 63% 29.82 in 10.0 mi WSW 15.0 mph - N/A   Clear
12:51 PM 52.0 °F - 39.0 °F 61% 29.79 in 10.0 mi WSW 15.0 mph - N/A   Clear
1:51 PM 53.1 °F - 39.0 °F 59% 29.78 in 10.0 mi WSW 17.3 mph - N/A   Clear
2:51 PM 51.1 °F - 41.0 °F 68% 29.78 in 10.0 mi WSW 17.3 mph - N/A   Clear
3:51 PM 51.1 °F - 41.0 °F 68% 29.81 in 10.0 mi WSW 16.1 mph 21.9 mph N/A   Clear
4:51 PM 50.0 °F - 41.0 °F 71% 29.81 in 10.0 mi WSW 12.7 mph 19.6 mph N/A   Clear
5:51 PM 48.9 °F - 42.1 °F 77% 29.81 in 9.0 mi WSW 12.7 mph - N/A   Clear
6:51 PM 50.0 °F - 43.0 °F 77% 29.83 in 10.0 mi WSW 13.8 mph - N/A   Clear
7:51 PM 50.0 °F - 44.1 °F 80% 29.84 in 9.0 mi WSW 10.4 mph - N/A   Clear
8:51 PM 50.0 °F - 45.0 °F 83% 29.85 in 9.0 mi WSW 10.4 mph - N/A   Clear
9:51 PM 50.0 °F - 43.0 °F 77% 29.84 in 10.0 mi WSW 10.4 mph - N/A   Clear
10:51 PM 50.0 °F - 44.1 °F 80% 29.82 in 10.0 mi WSW 9.2 mph - N/A   Clear
11:51 PM 51.1 °F - 45.0 °F 80% 29.81 in 10.0 mi WSW 10.4 mph - N/A   Clear